Location: Maiden
(35.5760°N, 81.2120°W)
Time: 17:36:22
(UTC-04:00)

OAO 2 Rocket - Pass Details

Date: 14 June 2018
Orbit: 677 x 746 km, 35.0° (Epoch: 20 August)

Event Time Altitude Azimuth Distance (km) Brightness Sun altitude
Rises 21:26:09 0° 278° (W) 3,168 7.9 -8.4°
Reaches altitude 10° 21:28:37 10° 275° (W) 2,248 6.9 -8.8°
Maximum altitude 21:33:50 59° 196° (SSW) 851 3.6 -9.6°
Enters shadow 21:38:27 13° 119° (ESE) 2,030 5.0 -10.4°
